Location: Moscow
(55.7500°N, 37.5830°E)
Time: 16:59:18
(UTC+03:00)

Transit 2A - Pass Details

Date: 05 December 2021
Orbit: 591 x 967 km, 66.7° (Epoch: 21 January)

Event Time Altitude Azimuth Distance (km) Brightness Sun altitude
Rises 08:03:42 0° 315° (NW) 3,641 - -5.0°
Exits shadow 08:05:03 - 316° (NW) 3,148 8.5 -4.9°
Reaches altitude 10° 08:06:15 10° 316° (NW) 2,709 8.2 -4.7°
Maximum altitude 08:12:42 90° 237° (WSW) 972 6.6 -4.0°
Drops below altitude 10° 08:18:59 10° 139° (SE) 2,649 10.6 -3.3°
Sets 08:21:28 0° 139° (SE) 3,555 11.6 -3.0°
